Grayling, MI

8:37 AM EST on November 23, 2017 (GMT -0500)
Grayling

Weather History for KGOV - January, 2013

Change the Weather History Date:

Wednesday, January 9, 2013

  Actual Average (KHTL) Record (KHTL)
Temperature  
Mean Temperature 34 °F -  
Max Temperature 38 °F 23 °F 46 °F (1937)
Min Temperature 28 °F 8 °F -19 °F (1977)
Degree Days  
Heating Degree Days 31    
Moisture  
Dew Point 27 °F    
Average Humidity 75    
Maximum Humidity 93    
Minimum Humidity 64    
Precipitation  
Precipitation 0.00 in - - ()
Sea Level Pressure  
Sea Level Pressure 30.01 in    
Wind  
Wind Speed 11 mph (WSW)    
Max Wind Speed 21 mph    
Max Gust Speed 34 mph    
Visibility 9 miles    
Events Snow    
Averages and records for this station are not official NWS values.
T = Trace of Precipitation, MM = Missing Value Source: NWS Daily Summary

Daily Weather History Graph

Daily Weather History Graph

Search for Another Location

Airport or City:

Trip Planner

Search our weather history database for the weather conditions in past years. The results will help you decide how hot, cold, wet, or windy it might be!

Date:

Astronomy

Jan. 09, 2013 Rise Set
Actual Time 8:14 AM EST 5:17 PM EST
Civil Twilight 7:42 AM EST 5:50 PM EST
Nautical Twilight 7:05 AM EST 6:27 PM EST
Astronomical Twilight 6:30 AM EST 7:02 PM EST
Moon 5:53 AM EST (1/9) 3:18 PM EST (1/9)
Length of Visible Light 10h 08m
Length of Day
9h 02m
Waning Crescent, 6% of the Moon is Illuminated
Jan 9
Waning Crescent
Jan 11
New
Jan 18
First Quarter
Jan 26
Full
Feb 3
Last Quarter

Hourly Weather History & Observations

Time (EST) Temp. Windchill Dew Point Humidity Pressure Visibility Wind Dir Wind Speed Gust Speed Precip Events Conditions
12:14 AM 31.1 °F 23.7 °F 24.8 °F 77% 29.99 in 7.0 mi South 8.1 mph - N/A   Clear
12:55 AM 33.3 °F 25.7 °F 25.9 °F 74% 29.97 in 10.0 mi South 9.2 mph 16.1 mph N/A   Mostly Cloudy
1:15 AM 33.3 °F 24.6 °F 25.7 °F 74% 29.96 in 10.0 mi South 11.5 mph 17.3 mph N/A   Mostly Cloudy
1:35 AM 33.3 °F 27.1 °F 25.5 °F 73% 29.93 in 10.0 mi South 6.9 mph 17.3 mph N/A   Scattered Clouds
1:55 AM 33.3 °F 25.7 °F 25.2 °F 72% 29.92 in 10.0 mi South 9.2 mph 19.6 mph N/A   Scattered Clouds
2:15 AM 33.3 °F 25.1 °F 24.8 °F 71% 29.91 in 10.0 mi SSW 10.4 mph 23.0 mph N/A   Clear
2:35 AM 33.3 °F 24.6 °F 24.8 °F 71% 29.91 in 10.0 mi SSW 11.5 mph 17.3 mph N/A   Clear
2:55 AM 33.3 °F 24.6 °F 25.3 °F 73% 29.91 in 10.0 mi South 11.5 mph - N/A   Scattered Clouds
3:15 AM 33.3 °F 26.4 °F 25.7 °F 74% 29.89 in 10.0 mi South 8.1 mph - N/A   Mostly Cloudy
3:35 AM 33.3 °F 26.4 °F 25.7 °F 74% 29.89 in 10.0 mi South 8.1 mph - N/A   Mostly Cloudy
3:51 AM 33.3 °F 26.4 °F 26.1 °F 75% 29.88 in 10.0 mi South 8.1 mph - N/A   Mostly Cloudy
4:11 AM 33.3 °F 25.7 °F 26.6 °F 77% 29.87 in 3.0 mi SSE 9.2 mph - N/A Snow Light Snow
4:31 AM 31.3 °F 26.6 °F 29.5 °F 93% 29.87 in 5.0 mi South 4.6 mph - N/A Snow Light Snow
4:51 AM 33.3 °F 28.9 °F 30.9 °F 91% 29.86 in 7.0 mi SSW 4.6 mph - N/A   Mostly Cloudy
5:11 AM 33.3 °F 26.4 °F 30.2 °F 89% 29.86 in 7.0 mi South 8.1 mph - N/A   Scattered Clouds
5:31 AM 33.3 °F 26.4 °F 30.2 °F 89% 29.84 in 7.0 mi South 8.1 mph - N/A   Mostly Cloudy
5:51 AM 33.3 °F 26.4 °F 30.6 °F 90% 29.82 in 7.0 mi South 8.1 mph - N/A   Overcast
6:11 AM 33.3 °F 27.1 °F 30.0 °F 88% 29.82 in 10.0 mi SSW 6.9 mph - N/A   Scattered Clouds
6:31 AM 33.3 °F 27.1 °F 30.4 °F 89% 29.82 in 7.0 mi South 6.9 mph - N/A   Clear
6:51 AM 33.3 °F 27.9 °F 30.9 °F 91% 29.82 in 7.0 mi SSW 5.8 mph - N/A   Scattered Clouds
7:12 AM 33.3 °F 27.9 °F 30.7 °F 90% 29.83 in 7.0 mi SSW 5.8 mph - N/A   Overcast
7:32 AM 33.3 °F 27.9 °F 30.9 °F 91% 29.83 in 7.0 mi SW 5.8 mph - N/A   Overcast
7:52 AM 34.2 °F 28.2 °F 31.8 °F 91% 29.83 in 7.0 mi SW 6.9 mph - N/A   Overcast
8:12 AM 35.8 °F 28.3 °F 32.0 °F 86% 29.84 in 10.0 mi WSW 10.4 mph 20.7 mph N/A   Overcast
8:32 AM 36.7 °F 28.4 °F 32.0 °F 83% 29.85 in 10.0 mi WSW 12.7 mph 18.4 mph N/A   Overcast
8:52 AM 37.4 °F 28.9 °F 31.6 °F 80% 29.87 in 10.0 mi WSW 13.8 mph 25.3 mph N/A   Overcast
9:12 AM 36.3 °F 26.8 °F 30.2 °F 78% 29.87 in 10.0 mi WSW 16.1 mph 24.2 mph N/A   Mostly Cloudy
9:32 AM 36.0 °F 25.6 °F 30.0 °F 79% 29.89 in 10.0 mi WSW 18.4 mph 32.2 mph N/A   Overcast
9:52 AM 35.8 °F 26.1 °F 29.3 °F 77% 29.89 in 10.0 mi West 16.1 mph 29.9 mph N/A   Mostly Cloudy
10:12 AM 35.8 °F 26.5 °F 28.9 °F 76% 29.90 in 10.0 mi WSW 15.0 mph 28.8 mph N/A   Mostly Cloudy
10:32 AM 36.0 °F 26.7 °F 28.4 °F 74% 29.89 in 10.0 mi WSW 15.0 mph 21.9 mph N/A   Scattered Clouds
10:53 AM 37.9 °F 29.6 °F 29.7 °F 72% 29.90 in 10.0 mi WSW 13.8 mph 23.0 mph N/A   Clear
11:13 AM 38.3 °F 30.1 °F 29.1 °F 70% 29.89 in 10.0 mi WSW 13.8 mph 23.0 mph N/A   Clear
11:33 AM 38.3 °F 31.4 °F 28.9 °F 69% 29.89 in 10.0 mi WSW 10.4 mph 21.9 mph N/A   Scattered Clouds
11:53 AM 38.3 °F 28.7 °F 28.4 °F 68% 29.89 in 10.0 mi WSW 18.4 mph 29.9 mph N/A   Scattered Clouds
12:13 PM 38.3 °F 30.5 °F 28.4 °F 68% 29.89 in 10.0 mi WSW 12.7 mph 25.3 mph N/A   Mostly Cloudy
12:33 PM 38.3 °F 28.7 °F 28.0 °F 67% 29.89 in 10.0 mi WSW 18.4 mph 27.6 mph N/A   Overcast
12:53 PM 38.3 °F 28.1 °F 27.5 °F 65% 29.90 in 10.0 mi WSW 20.7 mph 31.1 mph N/A   Overcast
1:13 PM 38.3 °F 28.7 °F 27.1 °F 64% 29.92 in 10.0 mi West 18.4 mph 34.5 mph N/A   Overcast
1:33 PM 35.8 °F 25.7 °F 25.9 °F 67% 29.94 in 10.0 mi West 17.3 mph 32.2 mph N/A   Overcast
1:54 PM 35.8 °F 26.9 °F 26.2 °F 68% 29.95 in 10.0 mi West 13.8 mph 31.1 mph N/A   Overcast
2:14 PM 35.8 °F 26.5 °F 25.7 °F 67% 29.97 in 10.0 mi West 15.0 mph 21.9 mph N/A   Overcast
2:34 PM 35.8 °F 25.7 °F 25.7 °F 67% 29.97 in 10.0 mi West 17.3 mph 29.9 mph N/A   Overcast
2:54 PM 35.8 °F 27.3 °F 25.7 °F 67% 29.99 in 10.0 mi West 12.7 mph 31.1 mph N/A   Overcast
3:14 PM 35.8 °F 26.1 °F 25.5 °F 66% 30.01 in 10.0 mi West 16.1 mph 29.9 mph N/A   Overcast
3:34 PM 35.8 °F 26.9 °F 25.5 °F 66% 30.02 in 10.0 mi West 13.8 mph 26.5 mph N/A   Overcast
3:54 PM 35.8 °F 24.8 °F 25.3 °F 66% 30.03 in 10.0 mi West 20.7 mph 32.2 mph N/A   Overcast
4:14 PM 35.8 °F 26.5 °F 25.5 °F 66% 30.05 in 10.0 mi West 15.0 mph 31.1 mph N/A   Overcast
4:34 PM 35.8 °F 25.7 °F 25.9 °F 67% 30.08 in 10.0 mi WSW 17.3 mph 27.6 mph N/A   Overcast
4:55 PM 35.8 °F 25.4 °F 26.4 °F 69% 30.10 in 10.0 mi West 18.4 mph 28.8 mph N/A   Overcast
5:15 PM 35.8 °F 26.1 °F 26.6 °F 69% 30.11 in 10.0 mi West 16.1 mph 29.9 mph N/A   Overcast
5:35 PM 35.8 °F 25.4 °F 26.6 °F 69% 30.13 in 10.0 mi West 18.4 mph 26.5 mph N/A   Overcast
5:55 PM 35.8 °F 26.1 °F 26.6 °F 69% 30.14 in 10.0 mi West 16.1 mph 26.5 mph N/A   Overcast
6:15 PM 35.8 °F 26.9 °F 26.4 °F 69% 30.16 in 10.0 mi West 13.8 mph 27.6 mph N/A   Overcast
6:35 PM 35.8 °F 26.9 °F 26.4 °F 69% 30.18 in 10.0 mi West 13.8 mph 26.5 mph N/A   Overcast
6:55 PM 35.8 °F 25.4 °F 26.2 °F 68% 30.19 in 10.0 mi West 18.4 mph 27.6 mph N/A   Overcast
7:15 PM 35.8 °F 26.1 °F 26.2 °F 68% 30.21 in 10.0 mi West 16.1 mph 23.0 mph N/A   Mostly Cloudy
7:36 PM 35.8 °F 26.9 °F 25.7 °F 67% 30.24 in 10.0 mi West 13.8 mph 29.9 mph N/A   Overcast
7:51 PM 35.8 °F 25.7 °F 25.9 °F 67% 30.25 in 10.0 mi West 17.3 mph 23.0 mph N/A   Overcast
8:11 PM 35.8 °F 26.1 °F 26.2 °F 68% 30.26 in 10.0 mi West 16.1 mph 25.3 mph N/A   Overcast
9:11 PM 33.6 °F 25.6 °F 25.7 °F 73% 30.30 in 10.0 mi West 10.4 mph - N/A   Scattered Clouds
9:31 PM 33.3 °F 26.4 °F 25.5 °F 73% 30.31 in 10.0 mi West 8.1 mph - N/A   Scattered Clouds
9:51 PM 33.3 °F 27.1 °F 26.1 °F 75% 30.33 in 10.0 mi West 6.9 mph - N/A   Clear
10:12 PM 33.3 °F 27.9 °F 26.4 °F 76% 30.34 in 10.0 mi West 5.8 mph - N/A   Scattered Clouds
10:32 PM 33.3 °F - 26.6 °F 77% 30.35 in 10.0 mi Calm Calm - N/A   Scattered Clouds
10:52 PM 33.3 °F 30.2 °F 27.3 °F 79% 30.36 in 10.0 mi West 3.5 mph - N/A   Clear
11:12 PM 31.1 °F 27.7 °F 25.7 °F 80% 30.36 in 10.0 mi WNW 3.5 mph - N/A   Clear
11:32 PM 30.9 °F - 26.1 °F 82% 30.36 in 10.0 mi Calm Calm - N/A   Clear
11:52 PM 28.4 °F 24.6 °F 25.7 °F 90% 30.36 in 10.0 mi West 3.5 mph - N/A   Clear